[[{"header":{"parameterUnit":"m.s-1","parameterCategory":1,"la1":30.2991,"la2":30.254,"lo1":-89.0895,"lo2":-89.0444,"dy":0.0017,"dx":0.0017,"nx":28,"ny":28,"refTime":"2025-09-01T03:00:00:Z","depth":0,"parameterNumber":2,"parameterNumberName":"U-component_of_WINDS"},"data":[0,0,0,0,0,0,0,0,0,0,0,0,0,0,0,0,0,0,0,0,0,0,0,0,0,0,0,0,0,0,0,0,0,0,0,0,0,0,0,0,0,0,0,0,0,0,0,0,0,0,0,0,0,0,0,0,0,0,-2.1266,-2.1267,0,-2.139,-2.1391,-2.1393,-2.1353,-2.135,-2.1347,-2.1345,-2.1475,-2.148,-2.1486,0,0,0,0,0,0,0,0,0,0,0,0,0,-2.0995,-2.1001,-2.1265,-2.1267,-2.1269,-2.139,-2.1391,-2.1393,-2.1353,-2.135,-2.1346,-2.1343,-2.1473,-2.148,-2.1487,0,0,0,0,0,0,0,0,0,0,0,0,0,-2.1116,-2.1002,-2.1265,-2.1263,-2.1264,-2.1389,-2.1391,-2.1394,-2.1354,-2.135,-2.1346,-2.1342,-2.147,-2.1479,-2.1488,-2.1623,0,0,-2.1515,-2.1519,0,0,0,0,0,0,0,0,-2.1109,-2.1126,-2.1262,-2.1263,-2.1265,-2.1351,-2.1344,-2.1471,-2.1355,-2.132,-2.1345,-2.134,-2.1437,-2.1448,-2.1481,-2.1629,-2.1635,-2.1516,-2.1521,-2.1525,-2.1528,0,0,0,0,0,0,0,-2.1101,-2.112,-2.1315,-2.1264,-2.1266,-2.1257,-2.1269,-2.1368,-2.14,-2.1322,-2.132,-2.1335,-2.1437,-2.1472,-2.1483,-2.1637,-2.1516,-2.1524,-2.1529,-2.1533,-2.1903,-2.1908,0,0,0,0,0,0,-2.1091,-2.1113,-2.1311,-2.1318,-2.1175,-2.1265,-2.1279,-2.1328,-2.1398,-2.1405,-2.1338,-2.1333,-2.1459,-2.1473,-2.1488,-2.1651,-2.1525,-2.1533,-2.1539,-2.1899,-2.1904,-2.1909,0,0,0,0,0,0,-2.1085,-2.1109,-2.1306,-2.1215,-2.124,-2.1274,-2.1329,-2.1332,-2.1367,-2.141,-2.1416,-2.1368,-2.1456,-2.1475,-2.159,-2.1655,-2.1537,-2.1546,-2.1894,-2.1901,-2.1907,-2.1979,0,0,0,0,0,0,-2.1078,-2.1107,-2.1158,-2.1217,-2.1245,-2.1405,-2.1333,-2.1338,-2.1383,-2.1376,-2.144,-2.1446,-2.1455,-2.1577,-2.1599,-2.1665,-2.1553,-2.1888,-2.1897,-2.1905,-2.1971,-2.1988,-2.2002,0,0,0,0,0,-2.1068,-2.1174,-2.1161,-2.1185,-2.1309,-2.1409,-2.1425,-2.1432,-2.1388,-2.144,-2.1468,-2.1444,-2.1645,-2.1589,-2.1613,-2.1684,-2.1884,-2.1894,-2.1904,-2.1964,-2.1984,-2.2001,0,0,0,0,0,0,-2.1124,-2.1182,-2.1168,-2.1296,-2.1348,-2.1402,-2.1468,-2.1453,-2.1518,-2.151,-2.1516,-2.1531,-2.1648,-2.1677,-2.1614,-2.1819,-2.1758,-2.1773,-2.1795,-2.1815,-2.183,-2.182,-2.156,0,0,0,0,0,-2.1151,-2.1226,-2.1273,-2.1382,-2.1408,-2.1434,-2.1477,-2.1478,-2.1532,-2.1554,-2.159,-2.1644,-2.1719,-2.1768,-2.184,-2.1975,-2.1989,-2.2036,-2.2051,-2.2063,-2.2077,-2.215,-2.2172,-2.1942,-2.1942,-2.1942,0,0,-2.1208,-2.1249,-2.1296,-2.1394,-2.1434,-2.1513,-2.1452,-2.1538,-2.1597,-2.1567,-2.1677,-2.1706,-2.1767,-2.1892,-2.1949,-2.192,-2.2143,-2.2076,-2.2086,-2.2092,-2.2163,-2.2185,-2.2204,-2.1949,-2.1948,-2.1947,0,0,-2.1351,-2.139,-2.1484,-2.1526,-2.1587,-2.1603,-2.1626,-2.1683,-2.17,-2.1811,-2.179,-2.186,-2.199,-2.2034,-2.2073,-2.2234,-2.2215,-2.2257,-2.2337,-2.2409,-2.2427,-2.2443,-2.25,-2.2521,-2.227,-2.227,-2.227,0,-2.1415,-2.1531,-2.1535,-2.1623,-2.1666,-2.1643,-2.1739,-2.1779,-2.1861,-2.1892,-2.1858,-2.2019,-2.2059,-2.2194,-2.2233,-2.2266,-2.2293,-2.225,-2.2424,-2.244,-2.2455,-2.251,-2.2531,-2.2275,-2.2275,-2.2274,-2.2274,0,-2.1606,-2.1687,-2.1756,-2.1835,-2.1887,-2.1978,-2.1997,-2.2049,-2.2045,-2.2065,-2.2178,-2.2224,-2.2305,-2.2337,-2.2335,-2.2473,-2.2453,-2.2421,-2.236,-2.2481,-2.2533,-2.2554,-2.2282,-2.228,-2.2279,-2.2278,0,0,-2.1788,-2.1867,-2.1893,-2.1928,-2.1994,-2.2058,-2.2148,-2.2226,-2.2271,-2.2328,-2.2404,-2.2514,-2.2486,-2.253,-2.2533,-2.2596,-2.272,-2.2557,-2.2558,-2.2586,-2.2876,-2.2899,-2.2923,-2.2708,-2.2712,-2.2716,-2.2871,0,-2.1937,-2.2095,-2.2101,-2.2246,-2.2321,-2.23,-2.2379,-2.2429,-2.245,-2.2518,-2.2542,-2.2619,-2.2576,-2.2603,-2.2664,-2.2692,-2.2779,-2.2681,-2.278,-2.2784,-2.2765,-2.295,-2.2975,-2.3119,-2.2891,-2.2894,-2.2897,0,-2.2132,-2.2194,-2.2346,-2.2401,-2.2433,-2.2504,-2.2576,-2.2641,-2.2697,-2.2708,-2.2758,-2.2751,-2.2845,-2.2781,-2.291,-2.2843,-2.2884,-2.2905,-2.291,-2.292,-2.2847,-2.2965,-2.3165,-2.3187,-2.2929,-2.2926,-2.2924,0,-2.2249,-2.2372,-2.2478,-2.251,-2.2576,-2.2627,-2.2657,-2.2709,-2.2755,-2.2819,-2.2849,-2.2923,-2.2963,-2.3021,-2.3034,-2.2986,-2.3164,-2.3101,-2.3176,-2.3176,-2.3215,-2.3212,-2.3424,-2.3241,-2.3241,-2.324,-2.324,0,-2.2415,-2.2509,-2.2532,-2.2598,-2.2702,-2.2709,-2.2813,-2.284,-2.2886,-2.2957,-2.2944,-2.3011,-2.3025,-2.3095,-2.3107,-2.3212,-2.3231,-2.3243,-2.3245,-2.3244,-2.3243,-2.3271,-2.3261,-2.3246,-2.3245,-2.3244,-2.3243,0,-2.2564,-2.2583,-2.2698,-2.2752,-2.2768,-2.2842,-2.2889,-2.2952,-2.2972,-2.3062,-2.3084,-2.3115,-2.3197,-2.3216,-2.3315,-2.3322,-2.3447,-2.3439,-2.3428,-2.3427,-2.3502,-2.3494,-2.374,-2.3772,-2.3568,-2.357,-2.3572,0,-2.2668,-2.274,-2.2801,-2.2847,-2.288,-2.2955,-2.3002,-2.3011,-2.3061,-2.313,-2.3186,-2.3266,-2.3331,-2.3463,-2.3495,-2.357,-2.3564,-2.3645,-2.3576,-2.3573,-2.3566,-2.3561,-2.3568,-2.3658,-2.3661,-2.3662,-2.3664,0,-2.2852,-2.2858,-2.2925,-2.2997,-2.3053,-2.3111,-2.3165,-2.3204,-2.3221,-2.3278,-2.3361,-2.3412,-2.3511,-2.3592,-2.3667,-2.3699,-2.3685,-2.3685,-2.3707,-2.3707,-2.3697,-2.3703,-2.3464,-2.368,-2.3678,-2.3677,-2.3676,-2.3675,-2.2982,-2.3044,-2.3097,-2.3173,-2.3215,-2.3266,-2.3328,-2.3355,-2.3425,-2.3506,-2.3508,-2.3599,-2.3653,-2.3753,-2.379,-2.3862,-2.3837,-2.3868,-2.3876,-2.3883,-2.389,-2.3686,-2.3875,-2.3875,-2.3875,-2.3874,-2.3874,0,-2.3164,-2.3197,-2.3267,-2.3343,-2.3403,-2.3384,-2.3443,-2.3495,-2.3575,-2.3626,-2.369,-2.3786,-2.3864,-2.3902,-2.3979,-2.403,-2.4025,-2.405,-2.4046,-2.4054,-2.3908,-2.3881,-2.4052,-2.4052,-2.4052,-2.4052,-2.4052,-2.4052,-2.3266,-2.3371,-2.3383,-2.3509,-2.3541,-2.3629,-2.3665,-2.3712,-2.3753,-2.3861,-2.3925,-2.3949,-2.3996,-2.4076,-2.4147,-2.4156,-2.4186,-2.4213,-2.422,-2.4082,-2.4064,-2.4047,-2.4022,-2.422,-2.422,-2.436,-2.4361,-2.4362]},{"header":{"parameterUnit":"m.s-1","parameterCategory":1,"la1":30.2991,"la2":30.254,"lo1":-89.0895,"lo2":-89.0444,"dy":0.0017,"dx":0.0017,"nx":28,"ny":28,"refTime":"2025-09-01T03:00:00:Z","depth":0,"parameterNumber":3,"parameterNumberName":"V-component_of_WINDS"},"data":[0,0,0,0,0,0,0,0,0,0,0,0,0,0,0,0,0,0,0,0,0,0,0,0,0,0,0,0,0,0,0,0,0,0,0,0,0,0,0,0,0,0,0,0,0,0,0,0,0,0,0,0,0,0,0,0,0,0,-1.5718,-1.5719,0,-1.5803,-1.5804,-1.5805,-1.5845,-1.5845,-1.5845,-1.5845,-1.5932,-1.5934,-1.5936,0,0,0,0,0,0,0,0,0,0,0,0,0,-1.5592,-1.5594,-1.5718,-1.5719,-1.572,-1.5802,-1.5804,-1.5805,-1.5845,-1.5845,-1.5845,-1.5845,-1.5931,-1.5934,-1.5936,0,0,0,0,0,0,0,0,0,0,0,0,0,-1.5658,-1.5595,-1.5718,-1.575,-1.5754,-1.5802,-1.5804,-1.5805,-1.5845,-1.5845,-1.5845,-1.5845,-1.593,-1.5933,-1.5937,-1.5959,0,0,-1.5947,-1.5949,0,0,0,0,0,0,0,0,-1.5655,-1.5663,-1.5744,-1.5748,-1.5752,-1.5813,-1.5791,-1.5857,-1.5845,-1.5811,-1.5845,-1.5845,-1.5892,-1.5899,-1.5915,-1.5963,-1.5967,-1.5948,-1.595,-1.5951,-1.5952,0,0,0,0,0,0,0,-1.565,-1.566,-1.5752,-1.5746,-1.575,-1.5761,-1.577,-1.5803,-1.5851,-1.5814,-1.5817,-1.5826,-1.5894,-1.5911,-1.5917,-1.5968,-1.5948,-1.5951,-1.5953,-1.5954,-1.6039,-1.6039,0,0,0,0,0,0,-1.564,-1.5656,-1.5749,-1.5754,-1.5702,-1.5763,-1.5774,-1.5794,-1.585,-1.5859,-1.5826,-1.5828,-1.5905,-1.5913,-1.592,-1.595,-1.5951,-1.5954,-1.5956,-1.6039,-1.6039,-1.6039,0,0,0,0,0,0,-1.5637,-1.5648,-1.5745,-1.5706,-1.5719,-1.5765,-1.5788,-1.5796,-1.5812,-1.586,-1.5868,-1.5835,-1.5906,-1.5915,-1.5949,-1.5954,-1.5956,-1.5959,-1.6039,-1.6039,-1.6039,-1.601,0,0,0,0,0,0,-1.5633,-1.5647,-1.5656,-1.5706,-1.5721,-1.5773,-1.5788,-1.5797,-1.5818,-1.5821,-1.587,-1.5878,-1.5906,-1.5944,-1.5953,-1.5959,-1.5962,-1.6039,-1.6039,-1.6039,-1.6011,-1.601,-1.6008,0,0,0,0,0,-1.5629,-1.5644,-1.5656,-1.5667,-1.5733,-1.5773,-1.5782,-1.5814,-1.5819,-1.5828,-1.5859,-1.5877,-1.5952,-1.5947,-1.5957,-1.5964,-1.6038,-1.6039,-1.6039,-1.6012,-1.601,-1.6008,0,0,0,0,0,0,-1.5593,-1.5651,-1.5665,-1.5697,-1.573,-1.578,-1.5792,-1.5811,-1.5843,-1.5844,-1.5883,-1.5893,-1.5924,-1.5948,-1.5941,-1.5989,-1.5997,-1.5999,-1.5973,-1.5971,-1.597,-1.5963,-1.5965,0,0,0,0,0,-1.5589,-1.5617,-1.5666,-1.5689,-1.5705,-1.5746,-1.5764,-1.5786,-1.5822,-1.5836,-1.5869,-1.5903,-1.5934,-1.5954,-1.5985,-1.6015,-1.6026,-1.6025,-1.6023,-1.6022,-1.6024,-1.6042,-1.6042,-1.6041,-1.6041,-1.6041,0,0,-1.5581,-1.5616,-1.5631,-1.5683,-1.5711,-1.5739,-1.5757,-1.5786,-1.5807,-1.584,-1.5874,-1.59,-1.594,-1.5972,-1.5987,-1.5993,-1.6027,-1.6023,-1.6021,-1.6024,-1.6042,-1.6042,-1.6042,-1.6041,-1.6041,-1.6041,0,0,-1.558,-1.5609,-1.5632,-1.566,-1.5702,-1.5729,-1.5735,-1.5782,-1.58,-1.5835,-1.5861,-1.5887,-1.594,-1.5968,-1.5989,-1.5999,-1.6017,-1.6008,-1.6001,-1.6017,-1.6017,-1.6018,-1.6022,-1.6022,-1.6009,-1.6009,-1.6009,0,-1.5564,-1.5607,-1.5641,-1.5669,-1.5691,-1.5723,-1.5746,-1.5771,-1.5822,-1.5836,-1.5841,-1.5909,-1.5938,-1.5977,-1.598,-1.5996,-1.6003,-1.6002,-1.6015,-1.6015,-1.6016,-1.602,-1.6022,-1.6008,-1.6008,-1.6008,-1.6008,0,-1.5586,-1.5615,-1.5629,-1.5677,-1.5701,-1.5726,-1.5764,-1.5784,-1.5804,-1.583,-1.5865,-1.5902,-1.5941,-1.5952,-1.5972,-1.5994,-1.5996,-1.6007,-1.6016,-1.6014,-1.6019,-1.6021,-1.6006,-1.6006,-1.6007,-1.6007,0,0,-1.5565,-1.5632,-1.5636,-1.5658,-1.5707,-1.5731,-1.5758,-1.5797,-1.5813,-1.5847,-1.587,-1.5915,-1.5926,-1.595,-1.5973,-1.5988,-1.5994,-1.5997,-1.5999,-1.5996,-1.6021,-1.6012,-1.6013,-1.6006,-1.6006,-1.6007,-1.6018,0,-1.5571,-1.562,-1.5652,-1.5689,-1.5717,-1.5747,-1.5771,-1.5804,-1.5829,-1.5857,-1.5885,-1.5916,-1.5928,-1.5943,-1.5959,-1.5989,-1.5999,-1.5989,-1.6028,-1.6029,-1.6017,-1.6016,-1.6006,-1.6015,-1.6019,-1.602,-1.602,0,-1.5584,-1.5618,-1.5657,-1.5704,-1.5717,-1.5737,-1.5776,-1.5801,-1.5839,-1.5857,-1.5884,-1.5907,-1.5937,-1.5943,-1.5985,-1.5977,-1.5995,-1.6013,-1.6014,-1.6019,-1.6025,-1.6021,-1.6018,-1.602,-1.6023,-1.6023,-1.6023,0,-1.5565,-1.562,-1.5651,-1.5669,-1.5724,-1.5738,-1.5761,-1.5799,-1.5821,-1.5854,-1.5869,-1.5905,-1.5925,-1.5953,-1.5986,-1.5987,-1.6024,-1.6033,-1.604,-1.6039,-1.6046,-1.6045,-1.6047,-1.6058,-1.6058,-1.6058,-1.6057,0,-1.5569,-1.5592,-1.5643,-1.5662,-1.5689,-1.5725,-1.5751,-1.5777,-1.581,-1.5835,-1.5864,-1.5887,-1.5929,-1.5957,-1.5982,-1.6013,-1.6022,-1.6037,-1.6044,-1.6035,-1.6033,-1.6047,-1.6047,-1.6058,-1.6058,-1.6058,-1.6058,0,-1.5552,-1.5587,-1.5623,-1.5672,-1.5685,-1.5703,-1.5745,-1.5765,-1.5792,-1.5823,-1.5832,-1.5875,-1.591,-1.5945,-1.5992,-1.6009,-1.6039,-1.6048,-1.6026,-1.603,-1.6035,-1.6034,-1.6046,-1.605,-1.6057,-1.6057,-1.6057,0,-1.5552,-1.557,-1.5622,-1.564,-1.5663,-1.5693,-1.5715,-1.5752,-1.5774,-1.5819,-1.5833,-1.5869,-1.5901,-1.5954,-1.599,-1.6025,-1.6036,-1.6037,-1.6041,-1.6032,-1.6036,-1.6035,-1.6037,-1.6036,-1.6036,-1.6035,-1.6035,0,-1.5548,-1.5564,-1.5595,-1.5632,-1.5658,-1.5689,-1.5721,-1.5735,-1.5777,-1.5801,-1.5836,-1.586,-1.5908,-1.5944,-1.5984,-1.6009,-1.6029,-1.6034,-1.6037,-1.6028,-1.6015,-1.6022,-1.6023,-1.6033,-1.6033,-1.6034,-1.6034,-1.6034,-1.554,-1.5558,-1.5597,-1.563,-1.5658,-1.5688,-1.5709,-1.5739,-1.5769,-1.5811,-1.5831,-1.5866,-1.5905,-1.5961,-1.5985,-1.6013,-1.6019,-1.6024,-1.6026,-1.6026,-1.6024,-1.601,-1.6021,-1.6021,-1.6021,-1.6021,-1.6021,0,-1.5537,-1.5564,-1.5595,-1.5639,-1.5665,-1.5682,-1.5719,-1.574,-1.5771,-1.5805,-1.5835,-1.5876,-1.5911,-1.5949,-1.5987,-1.6003,-1.6013,-1.6011,-1.6011,-1.6016,-1.6017,-1.601,-1.6002,-1.6002,-1.6002,-1.6002,-1.6002,-1.6002,-1.5539,-1.5571,-1.5592,-1.5638,-1.5665,-1.57,-1.572,-1.5747,-1.5774,-1.5819,-1.5848,-1.5873,-1.5909,-1.595,-1.5983,-1.5993,-1.6006,-1.6002,-1.6015,-1.6014,-1.6016,-1.6017,-1.6011,-1.6004,-1.6004,-1.6012,-1.6012,-1.6012]}]]